TimeCST,TemperatureF,Dew PointF,Humidity,Sea Level PressureIn,VisibilityMPH,Wind Direction,Wind SpeedMPH,Gust SpeedMPH,PrecipitationIn,Events,Conditions,WindDirDegrees,DateUTC
12:56 AM,37.9,26.1,62,30.30,-9999.0,SE,8.1,-,N/A,,Unknown,140,2012-11-14 06:56:00
1:56 AM,37.9,25.0,60,30.30,-9999.0,SSE,8.1,-,N/A,,Unknown,150,2012-11-14 07:56:00
2:56 AM,37.0,25.0,62,30.29,-9999.0,SE,10.4,-,N/A,,Unknown,130,2012-11-14 08:56:00
3:56 AM,36.0,25.0,64,30.29,-9999.0,SE,10.4,-,N/A,,Unknown,130,2012-11-14 09:56:00
4:56 AM,34.0,25.0,70,30.29,-9999.0,SE,8.1,-,N/A,,Unknown,140,2012-11-14 10:56:00
5:56 AM,32.0,25.0,75,30.30,-9999.0,ESE,6.9,-,N/A,,Unknown,120,2012-11-14 11:56:00
6:56 AM,32.0,24.1,73,30.31,-9999.0,SE,4.6,-,N/A,,Unknown,140,2012-11-14 12:56:00
7:56 AM,32.0,25.0,75,30.32,-9999.0,SE,3.5,-,N/A,,Unknown,140,2012-11-14 13:56:00
8:56 AM,35.1,27.0,72,30.33,-9999.0,SSE,4.6,-,N/A,,Unknown,160,2012-11-14 14:56:00
9:56 AM,39.0,26.1,60,30.34,-9999.0,Calm,Calm,-,N/A,,Unknown,0,2012-11-14 15:56:00
10:56 AM,43.0,25.0,49,30.33,-9999.0,East,4.6,-,N/A,,Unknown,100,2012-11-14 16:56:00
11:56 AM,46.0,24.1,42,30.32,-9999.0,Variable,5.8,-,N/A,,Unknown,0,2012-11-14 17:56:00
12:56 PM,48.0,24.1,39,30.29,-9999.0,SSE,6.9,-,N/A,,Unknown,160,2012-11-14 18:56:00
1:56 PM,50.0,23.0,35,30.26,-9999.0,Variable,5.8,-,N/A,,Unknown,0,2012-11-14 19:56:00
2:56 PM,52.0,25.0,35,30.25,-9999.0,South,8.1,-,N/A,,Unknown,170,2012-11-14 20:56:00
3:56 PM,52.0,24.1,34,30.24,-9999.0,SSE,5.8,-,N/A,,Unknown,150,2012-11-14 21:56:00
4:56 PM,51.1,24.1,35,30.22,-9999.0,ESE,4.6,-,N/A,,Unknown,120,2012-11-14 22:56:00
5:56 PM,48.0,26.1,42,30.22,-9999.0,SE,5.8,-,N/A,,Unknown,130,2012-11-14 23:56:00
6:56 PM,48.0,26.1,42,30.21,-9999.0,SE,6.9,-,N/A,,Unknown,130,2012-11-15 00:56:00
7:56 PM,46.0,26.1,46,30.22,-9999.0,ESE,6.9,-,N/A,,Unknown,110,2012-11-15 01:56:00
8:56 PM,42.1,27.0,55,30.21,-9999.0,Calm,Calm,-,N/A,,Unknown,0,2012-11-15 02:56:00
9:56 PM,41.0,27.0,57,30.22,-9999.0,ESE,6.9,-,N/A,,Unknown,110,2012-11-15 03:56:00
10:56 PM,41.0,28.9,62,30.21,-9999.0,ESE,6.9,-,N/A,,Unknown,120,2012-11-15 04:56:00
11:56 PM,41.0,28.9,62,30.21,-9999.0,ESE,8.1,-,N/A,,Unknown,120,2012-11-15 05:56:00